FENGYUN 1C DEB

Satellite information

Favourite Embed

Satellite Type and Status

DEBRISIN ORBIT

Key statistics

Satellite FENGYUN 1C DEB at a glance.

Uptime

9714

Days in orbit

Revolutions

≈ 14.3

Per day

Orbit

SSO

Sun Synchronous Orbit

Inclination

98.4

Latest

Satellite identification and parameters

Extended collection of information and parameters for FENGYUN 1C DEB.

Object identification

Identified? True

Debris? True

Object name: FENGYUN 1C DEB

International designator: 1999-025EVT

Object number (NORAD): 38827

Object ID (CCSDS): 38827

Country: PEOPLES REPUBLIC OF CHINA (PRC)

Current information (Y/N): Y

RCS size: SMALL

Orbital parameters

Period: 100.501 minutes

Inclination: 98.3872 deg

SMA: 7160.432 km

Apoapsis: 937.292 km

Periapsis: 627.303 km

RAAN: 7.3235 deg

Eccentricy: 0.021646

Argument of periapsis: 320.0976 deg

Mean anomaly: 38.4466 deg

Mean motion: 14.32827414 rev/day

Mean motion (dot): 0.00004908 rev/day2

B* drag term: 0.0014001 1/REarth

Two-line elements (TLE)

Creation date: Dec. 10, 2025, 3:06 p.m.

Reference frame: TEME

Reference center: EARTH

Epoch: Dec. 10, 2025, 7:42 a.m. UTC

TLE line 0: 0 FENGYUN 1C DEB

TLE line 1: 1 38827U 99025EVT 25344.32132757 .00004908 00000-0 14001-2 0 9990

TLE line 2: 2 38827 98.3872 7.3235 0216460 320.0976 38.4466 14.32827414610254

Live tracking on map

Real-time ground track for satellite FENGYUN 1C DEB.

In-orbit conjunctions

A list of the most updated potential collisions computed for object FENGYUN 1C DEB.

Target Orbit TCA Probability of collision Miss distance Type
IRIDIUM 33 DEB LEO 2025-07-23 21:23:31 0.0002875282 130.0 (m) DEBRIS
COSMOS 1275 DEB LEO 2024-11-07 23:09:45 0.000712696 219.0 (m) DEBRIS
NOAA 16 DEB SSO 2024-09-26 02:33:59 0.0002234687 570.0 (m) DEBRIS
SPOT 4 SSO 2024-08-08 23:31:17 0.0004480718 211.0 (m) PAYLOAD
SL-8 R/B LEO 2024-07-27 06:12:08 0.0002840495 645.0 (m) ROCKET BODY

Associated space launch

Chinese polar orbiting meteorological satellite

FENGYUN 1C DEB was lifted into orbit during the mission ‘Long March 4B | Feng Yun 1C’, on board a Long March 4B space rocket.

The launch took place on May 10, 1999, 1:33 a.m. from Launch Complex 7.

For more information about the launch, click the button.

Launch to space Long March 4B | Feng Yun 1C
Long March 4B | Feng Yun 1C

Agency: N/A

Status: Launch Successful

Launch date: May 10, 1999, 1:33 a.m. UTC

Rocket: Long March 4B

Launch pad: Launch Complex 7

Location: Taiyuan Satellite Launch Center, People's Republic of China

...

Latest news about this satellite

There are no fresh news available about this satellite. Check back as we update our databases every day.


Newsletter sign-up

Weekly statistics, charts and insights to help you stay on top of the space industry.